Apolo11.com - Imagens de satélite, tecnologia e fenômenos naturais




Elementos Keplerianos formato Two Line

Para que um programa de rastreio possa saber a localização exata de qualquer satélite no espaço e assim poder rastreá-lo corretamente, é necessário que ele seja carregado com algumas informações.

Estas informações são chamadas de Elementos Orbitais ou Elementos Keplerianos e consistem em 2 linhas com dezenas de números. Esses números nada mais são que os parâmetros orbitais do satélite, tais como altitude, atitude, excentricidade da órbita, número de órbitas por dia, etc.

Com base nestas informações o programa é capaz de determinar com bastante exatidão a posição de qualquer satélite no espaço e nos informar em qual horário este estará dentro do alcance de nossa estação. Para que isso seja feito com precisão é necessário que os dados estejam sempre bem atualizadas.

Devido aos parâmetros orbitais serem descritos em 2 linhas, estes formato é também conhecido internacionalmente por 2line (leia-se Two Line”).

Para atualizar seu programa de rastreio basta copiar os dados disponibilizados e fornece-los ao programa. Nossos elementos orbitais são atualizados diariamente.


NOAATodos os satélites ambientais da série NOAA
30 DiasSatélites lançados nos últimos 30 dias
ISSSatélites e foguetes relacionados à Estação Espacial Internacional
HAMSatélites construídos por radiomadores
CUBESatélites tipo cubo, com 10 centímetros de lado
METEOSatélites voltados à previsão do tempo
EDUSatélites construídos e operados por universidades
VIS100 satélites mais brilhantes que podem ser vistos a olho nú


Satélites Educacionais
SAUDISAT 1A             
1 26545U 00057A   12212.51092019  .00000555  00000-0  87664-4 0  2194
2 26545  64.5541 205.2069 0050113 300.5502  59.0665 14.81612328639913
UNISAT                  
1 26547U 00057C   12212.29018143  .00000825  00000-0  11434-3 0  2424
2 26547  64.5532 179.6829 0052518 306.3084  53.3147 14.84091053640422
SAUDISAT 1B             
1 26549U 00057E   12212.82522537  .00000320  00000-0  60048-4 0  3081
2 26549  64.5543 227.2862 0052239 305.3888  54.2355 14.80413402639492
MOZHAYETS               
1 27560U 02054B   12212.87176007  .00000273  00000-0  71937-4 0  6995
2 27560  97.9631  13.3499 0041561 258.9649 100.6887 14.55662455512502
SAUDISAT 1C             
1 27607U 02058C   12212.36631256  .00000317  00000-0  69135-4 0  8254
2 27607  64.5568 163.5425 0080656 240.0154 119.2936 14.72442696516328
UNISAT 2                
1 27608U 02058D   12212.19061082  .00000165  00000-0  44408-4 0  8336
2 27608  64.5576 113.4991 0062493 235.0349 124.4875 14.75284654517354
SAUDISAT 2              
1 28371U 04025F   12212.67231248  .00000137  00000-0  42941-4 0   674
2 28371  97.9282 215.8523 0027513 109.4979 250.9187 14.53248347428842
UNISAT 3                
1 28373U 04025H   12212.63245438  .00000230  00000-0  77962-4 0  2945
2 28373  98.1036 183.7952 0069725 229.9166 129.5899 14.43863896426525
SSETI EXPRESS (XO-53)   
1 28894U 05043E   12212.65073534  .00000126  00000-0  35315-4 0  4461
2 28894  97.9058  75.3796 0018272  20.5244 339.6685 14.60121805360091
SAUDISAT 3              
1 31118U 07012B   12212.86437168  .00000009  00000-0  96155-5 0  6666
2 31118  97.8678 268.1191 0014471 205.8270 154.2208 14.68278719283390


IMAGENS DE SATÉLITES !    Clique e conheça nosso Vídeo Workshop de sensoriamento remoto e imagens meteorológicas.
Apolo11.com - Todos os direitos reservados - 2001 - 2013
Política de Privacidade

"Quanto mais uma pessoa compreende a seriedade da vida, melhor dela se pode rir" - Schopenhauer